Wind_Speed
27 24 24 30 35 31 27 28 21 44 40 42 35 30 26 19 19 19 22 24 25 25 27 27 30 34 22 20 19 18 11 14 11 12 11 10 8 6 6 5 7 9 11 12
24 24 25 36 34 33 33 33 35 40 48 34 26 21 18 21 24 25 27 26 22 21 24 25 24 22 20 16 16 13 13 12 11 10 8 5 4 3 2 5 7 8 9 11
26 24 25 29 24 24 27 24 23 30 31 14 18 19 20 21 24 24 25 26 21 19 20 23 22 21 18 15 15 14 12 11 10 7 5 3 2 1 3 4 5 7 8 11
13 13 9 20 21 15 21 22 20 20 16 21 20 21 22 20 14 18 21 19 19 21 21 21 21 15 14 15 13 12 11 10 8 6 5 5 3 2 2 2 4 7 10 12
15 17 24 32 34 14 7 13 19 20 22 21 20 19 14 17 22 21 21 23 22 20 20 18 14 18 15 13 12 11 11 10 8 7 7 6 5 4 3 2 5 7 9 12
19 9 5 12 10 7 19 24 15 11 8 9 13 17 16 16 15 17 20 19 12 12 14 17 17 15 13 13 12 12 11 10 9 9 8 7 6 5 3 2 4 7 8 10
28 18 16 30 21 19 9 6 6 9 17 17 17 18 14 14 15 13 11 10 11 13 16 15 15 14 14 13 12 13 11 10 10 10 9 7 6 5 2 1 2 5 7 10
17 12 13 22 15 15 10 13 15 20 13 17 14 13 11 13 14 12 13 13 13 14 14 14 15 14 13 13 14 12 11 11 11 10 9 8 7 5 3 2 2 5 8 10
18 12 12 13 15 13 17 21 18 22 15 13 14 14 12 12 11 11 14 14 13 13 14 14 14 14 14 14 12 12 13 13 13 13 11 9 9 7 5 4 5 7 9 12
13 16 25 21 20 25 22 22 16 15 18 17 15 14 15 13 11 11 12 13 12 13 14 13 14 14 14 14 14 14 15 16 16 15 13 12 11 10 8 7 9 10 12 15
27 20 15 10 12 11 15 17 17 16 15 15 12 13 15 14 13 12 11 11 12 13 14 15 15 14 14 15 15 16 17 18 17 15 14 14 13 12 11 12 12 13 15 18
23 20 21 20 18 19 22 21 22 20 18 17 14 14 14 14 14 14 12 12 13 14 14 15 15 15 16 17 17 19 20 20 18 18 18 17 16 15 15 16 16 17 19 21
23 19 24 23 22 20 18 11 13 17 16 18 16 16 16 14 15 15 14 12 13 14 15 16 16 16 17 18 19 20 21 22 22 22 21 20 20 20 20 20 20 22 23 25
24 26 27 22 18 15 16 19 17 16 16 20 18 17 16 17 17 16 14 13 16 16 16 17 17 17 19 20 21 22 23 25 26 25 25 25 24 23 23 24 25 26 28 29
20 21 18 16 15 15 18 20 19 20 20 18 16 15 14 16 16 15 16 16 17 18 18 17 17 19 20 21 22 23 25 26 26 27 27 27 26 27 27 28 29 31 32 33
14 14 16 18 20 21 20 19 20 20 19 18 17 15 14 16 18 18 17 17 17 16 18 20 20 21 22 23 23 25 27 28 29 30 29 29 29 30 31 32 33 33 34 35
21 18 20 22 23 22 23 22 21 20 19 18 16 16 15 17 17 16 17 18 18 19 20 19 19 21 23 24 25 26 27 28 29 30 31 31 32 33 34 35 35 36 37 37
19 19 21 22 22 22 20 20 17 11 11 14 16 17 15 12 15 18 18 19 19 19 20 20 19 20 23 24 25 26 27 28 29 30 31 31 32 34 34 35 36 37 38 39
18 20 23 22 21 18 19 20 10 9 9 12 15 17 16 17 19 20 20 19 18 18 20 19 20 20 22 24 24 25 27 28 28 29 30 31 33 34 35 36 37 38 39 39
19 20 20 19 18 17 19 19 19 14 12 13 16 16 16 17 18 20 19 18 18 18 19 19 20 21 22 23 24 24 25 27 28 29 31 32 33 35 36 36 37 38 38 39
16 14 13 12 12 12 15 17 18 16 15 16 16 14 15 16 17 19 16 16 19 19 18 18 19 20 21 22 23 24 25 26 28 29 30 32 33 33 35 35 36 37 38 39
8 9 10 10 10 10 12 13 15 17 17 19 19 17 15 15 17 16 16 17 19 18 18 18 18 18 19 20 21 22 24 26 27 29 29 30 31 32 33 34 36 36 35 34
6 7 8 9 9 9 9 10 12 13 14 14 15 15 15 15 15 15 17 18 18 18 18 18 19 18 19 19 20 21 23 24 25 27 28 29 31 32 33 33 34 34 34 33
6 7 8 9 9 9 8 8 9 9 10 10 11 12 12 13 15 16 18 18 19 19 19 20 20 21 21 22 23 24 25 26 28 29 30 31 32 33 34 34 34 32 31 30
11 10 11 11 10 10 9 10 10 10 10 11 12 12 13 15 16 18 18 19 19 20 21 22 22 23 24 25 26 27 28 29 31 32 32 33 34 33 33 32 30 29 27 26
11 11 11 10 9 10 10 10 11 11 12 13 13 14 15 15 16 17 18 18 19 20 22 23 24 26 27 28 30 31 32 32 33 33 33 33 32 31 30 29 27 26 25 24
10 10 9 9 8 9 10 10 10 11 11 12 13 14 15 15 17 19 20 21 23 25 26 27 28 29 30 30 31 31 31 31 31 31 31 30 28 27 27 26 24 23 22 21
Wind_Direction
285 280 279 276 278 281 282 279 253 275 272 279 286 291 291 284 280 280 282 283 282 278 270 272 273 281 275 279 273 260 255 268 275 284 291 302 313 321 328 338 10 11 15 16
269 275 280 280 278 279 281 278 271 276 278 287 290 289 272 279 285 287 281 278 283 273 268 267 271 279 276 276 249 252 262 262 270 277 286 290 293 313 322 29 25 23 23 24
274 277 280 277 282 283 288 283 277 273 280 300 291 278 281 282 279 282 282 283 277 259 257 257 269 275 267 233 241 250 250 259 264 265 255 241 225 234 51 36 33 33 29 29
262 268 253 268 280 274 276 284 276 259 273 289 287 295 280 295 299 282 278 277 267 248 243 252 272 245 221 226 240 240 247 251 249 231 207 195 176 152 96 73 53 39 31 25
247 249 267 279 281 288 281 294 268 266 276 289 277 279 289 295 291 290 287 283 265 238 239 253 229 222 229 235 230 237 242 237 220 199 191 180 172 165 162 88 54 37 26 18
243 245 259 260 256 260 301 288 293 273 279 298 284 286 299 303 303 300 293 281 254 239 230 222 232 231 227 224 229 237 235 221 201 195 189 182 180 182 165 86 38 22 12 7
239 241 259 267 268 270 261 281 332 300 297 304 294 291 302 305 295 281 284 277 252 239 232 233 227 224 221 225 235 234 226 212 205 195 190 190 198 197 174 82 16 355 353 352
226 228 254 278 253 232 258 290 294 309 289 286 282 290 301 305 298 259 263 267 261 253 238 229 225 224 224 229 231 227 216 207 200 192 197 203 211 217 218 246 309 327 335 339
230 245 234 241 249 259 281 291 295 291 291 284 284 281 282 293 295 252 252 258 259 244 234 228 225 224 229 229 229 223 211 202 197 198 204 208 220 227 236 261 289 309 322 329
249 254 255 245 247 268 283 302 293 288 279 273 281 278 267 276 269 262 254 256 248 243 239 231 227 228 230 230 227 221 214 207 203 204 206 212 223 234 247 266 283 300 315 324
308 313 314 288 276 287 271 278 295 289 267 272 283 280 269 265 255 247 247 251 244 236 234 232 229 230 234 234 227 216 214 214 214 214 216 223 233 243 255 269 284 297 308 315
284 286 284 284 280 283 288 285 280 267 266 262 274 276 266 261 249 244 242 247 246 241 239 237 234 236 236 234 228 220 217 216 219 220 224 231 238 248 260 271 282 293 302 308
284 273 270 281 292 293 282 288 270 282 254 259 271 266 260 255 248 240 239 247 251 240 232 233 236 240 238 236 233 228 223 219 221 225 230 238 245 253 262 271 281 290 297 301
269 273 274 282 284 277 281 291 282 274 265 259 262 261 260 248 248 247 242 241 242 240 238 238 242 243 240 236 233 232 230 229 229 230 234 241 249 258 267 275 284 289 292 296
264 268 270 279 287 286 286 284 274 264 263 261 259 260 256 248 243 239 237 241 243 243 239 242 246 244 241 240 237 236 236 238 240 242 245 250 256 263 270 277 280 284 290 295
290 275 287 289 286 292 295 290 280 270 265 249 250 252 245 236 234 237 241 242 243 241 237 239 242 242 239 241 240 240 241 242 244 247 252 257 261 265 270 275 280 285 290 292
284 274 279 284 285 290 294 293 285 265 253 238 242 241 235 232 231 240 243 240 240 239 244 247 250 250 246 246 245 245 246 248 250 252 255 259 264 269 273 278 282 285 288 290
265 274 278 282 285 283 279 280 279 258 242 240 242 240 234 237 235 237 237 237 241 245 249 252 257 254 247 246 249 251 252 252 254 256 258 262 266 269 273 278 282 285 287 289
275 279 283 284 285 278 264 278 268 262 273 259 254 252 245 237 237 240 238 239 243 248 254 261 265 262 254 251 252 253 255 257 260 262 264 266 269 273 276 279 282 284 287 289
277 279 281 283 283 271 264 269 257 257 273 282 279 273 258 244 241 244 240 241 247 252 260 265 269 265 258 256 256 257 258 261 263 264 267 269 271 274 277 280 283 285 287 289
276 279 284 287 289 277 264 265 273 276 279 282 282 281 276 262 256 254 246 249 255 263 271 270 266 263 262 262 263 265 267 267 269 270 271 273 275 277 279 281 284 286 286 289
287 291 290 289 288 282 272 266 266 268 265 270 270 263 256 251 252 246 246 251 260 268 272 273 272 271 270 270 270 269 269 271 273 274 276 277 279 281 283 283 286 291 294 293
295 301 302 300 295 289 281 273 269 268 267 267 265 261 257 253 250 249 251 259 268 271 273 275 277 278 278 278 277 277 276 277 278 280 281 282 284 286 289 288 289 291 292 292
284 301 312 312 304 296 291 286 279 272 268 265 261 257 252 252 256 260 264 269 272 274 275 277 278 280 281 282 283 284 285 285 285 286 286 286 285 286 288 289 290 290 291 292
276 287 297 305 301 293 289 284 279 274 271 269 268 266 266 267 268 271 273 275 277 278 279 281 283 284 284 285 285 285 285 285 285 286 286 287 288 289 289 289 289 291 292 291
275 280 289 292 292 292 290 288 285 283 281 279 278 277 276 275 274 275 277 280 281 282 283 284 285 285 285 284 284 284 284 285 287 288 289 289 289 289 289 289 290 290 289 289
281 287 291 293 291 289 290 290 290 289 287 286 286 286 286 285 284 283 283 283 284 285 285 285 284 283 283 283 285 286 286 286 286 287 288 288 288 287 287 287 288 289 288 288
Height
3053 3054 3055 3054 3052 3053 3052 3052 3052 3037 3039 3038 3040 3040 3037 3037 3037 3036 3036 3036 3036 3035 3034 3034 3034 3032 3030 3030 3031 3032 3032 3033 3032 3032 3030 3029 3028 3027 3026 3025 3023 3021 3019 3017
3048 3049 3049 3045 3045 3044 3043 3041 3040 3034 3024 3033 3032 3031 3030 3030 3028 3028 3028 3027 3027 3027 3027 3028 3028 3026 3026 3026 3027 3028 3029 3029 3029 3028 3027 3026 3026 3025 3025 3023 3022 3021 3020 3018
3042 3044 3043 3036 3036 3036 3033 3033 3032 3027 3022 3028 3026 3025 3024 3024 3022 3021 3020 3020 3020 3019 3021 3021 3021 3021 3021 3022 3024 3025 3026 3026 3026 3025 3024 3024 3024 3024 3023 3023 3022 3021 3020 3017
3041 3040 3036 3029 3030 3029 3026 3025 3025 3023 3022 3021 3020 3019 3019 3018 3015 3015 3014 3014 3013 3012 3013 3014 3015 3016 3017 3018 3020 3022 3023 3023 3022 3022 3022 3022 3022 3023 3023 3023 3022 3021 3019 3017
3036 3034 3028 3026 3026 3025 3021 3019 3018 3018 3018 3015 3014 3013 3013 3011 3010 3008 3007 3006 3004 3005 3007 3009 3010 3011 3013 3016 3017 3018 3019 3019 3019 3019 3020 3021 3022 3022 3022 3021 3020 3019 3018 3016
3030 3029 3024 3021 3021 3020 3019 3015 3014 3014 3012 3011 3010 3008 3008 3006 3004 3002 3001 2999 2999 3000 3002 3004 3006 3009 3011 3013 3014 3015 3016 3016 3016 3017 3018 3019 3020 3021 3021 3020 3019 3018 3017 3015
3021 3022 3017 3014 3019 3018 3017 3017 3011 3010 3009 3008 3006 3005 3004 3002 3000 2999 2999 2998 2998 2999 3000 3001 3004 3006 3007 3009 3011 3012 3012 3013 3014 3015 3017 3018 3019 3020 3020 3018 3018 3017 3016 3014
3017 3017 3014 3010 3012 3012 3011 3008 3007 3005 3003 3002 3002 3001 3000 2999 2997 2997 2997 2996 2996 2997 2998 2999 3001 3003 3004 3006 3007 3008 3009 3010 3012 3014 3016 3017 3018 3018 3017 3016 3016 3015 3014 3012
3011 3007 3006 3006 3007 3006 3005 3003 3003 3001 3000 2998 2997 2997 2996 2996 2994 2993 2993 2993 2993 2994 2996 2997 2999 3000 3001 3003 3004 3005 3006 3007 3009 3011 3013 3014 3016 3016 3015 3014 3013 3012 3010 3009
2999 3000 2998 2999 3001 3001 3000 2998 2997 2996 2996 2995 2994 2993 2993 2992 2992 2991 2990 2990 2990 2991 2993 2994 2996 2997 2998 2999 3000 3002 3004 3005 3006 3008 3009 3011 3012 3012 3012 3011 3010 3009 3007 3005
2996 2996 2996 2996 2996 2995 2994 2993 2992 2992 2992 2991 2990 2989 2989 2989 2988 2988 2988 2987 2988 2989 2990 2991 2992 2994 2995 2996 2997 2998 3000 3003 3004 3006 3007 3008 3009 3009 3008 3007 3006 3004 3003 3001
2992 2993 2991 2990 2990 2989 2987 2986 2986 2985 2986 2986 2986 2985 2985 2985 2984 2984 2985 2985 2985 2986 2987 2988 2989 2990 2991 2992 2994 2995 2997 2998 3000 3002 3002 3003 3004 3004 3003 3003 3001 2999 2998 2996
2987 2986 2984 2983 2983 2982 2981 2980 2979 2979 2979 2980 2980 2980 2980 2980 2980 2980 2981 2981 2981 2982 2983 2984 2985 2986 2987 2989 2990 2992 2993 2994 2995 2997 2998 2999 2999 2998 2998 2997 2996 2994 2993 2991
2980 2979 2978 2978 2977 2976 2975 2975 2973 2973 2973 2974 2974 2974 2975 2975 2976 2977 2977 2977 2977 2978 2979 2980 2981 2982 2983 2984 2985 2987 2989 2990 2990 2991 2991 2992 2993 2993 2993 2992 2990 2988 2987 2984
2973 2973 2972 2972 2972 2972 2970 2969 2968 2968 2968 2968 2969 2969 2969 2970 2971 2972 2972 2972 2973 2973 2974 2975 2977 2977 2977 2979 2980 2982 2983 2985 2986 2987 2987 2987 2988 2987 2986 2985 2984 2982 2979 2976
2967 2967 2967 2966 2966 2965 2964 2963 2962 2961 2961 2962 2963 2963 2963 2963 2964 2966 2967 2968 2968 2969 2970 2970 2971 2971 2972 2973 2975 2976 2977 2978 2979 2980 2981 2981 2981 2980 2979 2978 2976 2974 2971 2968
2961 2962 2961 2960 2960 2959 2957 2956 2954 2954 2954 2955 2956 2957 2957 2958 2959 2961 2962 2963 2963 2964 2965 2966 2966 2966 2967 2968 2969 2970 2971 2971 2972 2973 2973 2973 2972 2972 2970 2968 2967 2964 2962 2959
2955 2955 2955 2954 2954 2952 2951 2950 2949 2947 2948 2949 2950 2951 2951 2953 2955 2956 2957 2957 2958 2959 2960 2960 2960 2960 2961 2962 2963 2963 2964 2964 2965 2965 2965 2965 2964 2963 2961 2959 2957 2954 2952 2949
2950 2949 2948 2948 2947 2946 2946 2946 2946 2946 2946 2947 2947 2947 2948 2949 2950 2951 2952 2953 2954 2954 2954 2955 2955 2955 2955 2956 2956 2957 2957 2957 2957 2957 2956 2956 2954 2953 2951 2949 2947 2945 2941 2938
2945 2944 2943 2942 2941 2940 2941 2941 2942 2943 2943 2943 2943 2944 2944 2944 2946 2946 2947 2948 2949 2949 2950 2949 2949 2948 2948 2949 2949 2949 2949 2949 2949 2948 2947 2946 2945 2943 2941 2939 2937 2934 2931 2928
2940 2939 2938 2937 2937 2936 2936 2937 2937 2938 2938 2938 2939 2939 2939 2940 2941 2941 2943 2944 2943 2944 2944 2944 2943 2942 2942 2942 2942 2942 2941 2941 2940 2939 2938 2936 2935 2933 2931 2929 2927 2924 2921 2917
2936 2936 2935 2935 2934 2933 2933 2933 2933 2933 2934 2934 2934 2934 2934 2935 2936 2937 2938 2939 2938 2938 2938 2937 2936 2936 2935 2935 2935 2935 2933 2932 2931 2930 2928 2927 2925 2923 2921 2919 2916 2913 2910 2907
2934 2934 2933 2932 2932 2931 2930 2930 2929 2929 2929 2929 2929 2930 2930 2931 2932 2933 2933 2933 2933 2933 2932 2931 2930 2930 2929 2928 2927 2926 2926 2924 2923 2921 2920 2918 2916 2913 2911 2908 2905 2903 2900 2897
2933 2932 2931 2930 2929 2928 2928 2927 2927 2927 2926 2926 2926 2927 2927 2927 2928 2928 2928 2928 2927 2927 2926 2925 2924 2923 2923 2922 2921 2919 2918 2916 2915 2913 2911 2909 2906 2903 2901 2899 2896 2893 2891 2888
2930 2930 2929 2929 2927 2927 2926 2925 2925 2924 2924 2924 2924 2924 2924 2924 2924 2923 2923 2922 2921 2921 2920 2919 2918 2917 2916 2915 2913 2912 2910 2908 2906 2904 2901 2899 2897 2894 2892 2889 2886 2884 2881 2879
2927 2927 2926 2926 2925 2924 2923 2923 2922 2922 2921 2921 2921 2920 2920 2919 2918 2918 2917 2916 2915 2915 2913 2912 2911 2909 2908 2906 2904 2903 2901 2899 2896 2894 2892 2889 2887 2884 2882 2879 2877 2875 2873 2871
2924 2924 2924 2923 2923 2922 2921 2920 2920 2919 2919 2918 2917 2916 2916 2915 2914 2913 2912 2911 2909 2908 2906 2905 2903 2901 2899 2897 2895 2892 2890 2888 2886 2884 2882 2880 2877 2875 2873 2871 2869 2868 2866 2865